Track STARLINK-3074 now! 10-day predictions STARLINK-3074 is classified as:
1 49170U 21082AS 22187.09557826 .00000369 00000-0 38709-4 0 9995 2 49170 69.9990 79.5984 0002718 263.4051 96.6799 14.98330679 44875